Change the Weather History Date:

Thursday, May 29, 2014

  Actual Average (KBPI) Record (KBPI)
Temperature  
Mean Temperature 56 °F 50 °F  
Max Temperature 71 °F 66 °F 85 °F (2003)
Min Temperature 42 °F 34 °F 10 °F (1984)
Degree Days  
Heating Degree Days 8 15  
Month to date heating degree days 566  
Since 1 July heating degree days 10097  
Cooling Degree Days 0 0  
Month to date cooling degree days 0  
Year to date cooling degree days 0  
Growing Degree Days 6 (Base 50)    
Moisture  
Dew Point 34 °F    
Average Humidity 49    
Maximum Humidity 93    
Minimum Humidity 15    
Precipitation  
Precipitation 0.00 in 0.03 in 0.47 in (2005)
Month to date precipitation 0.78  
Year to date precipitation 2.41  
Sea Level Pressure  
Sea Level Pressure 30.12 in    
Wind  
Wind Speed 5 mph (WSW)    
Max Wind Speed 17 mph    
Max Gust Speed 28 mph    
Visibility 10 miles    
Events      
T = Trace of Precipitation, MM = Missing Value Source: NWS Daily Summary

Daily Weather History Graph

Daily Weather History Graph

Search for Another Location

Airport or City:

Trip Planner

Search our weather history database for the weather conditions in past years. The results will help you decide how hot, cold, wet, or windy it might be!

Date:

Astronomy

May. 29, 2014 Rise Set
Actual Time 5:45 AM MDT 8:48 PM MDT
Civil Twilight 5:11 AM MDT 9:22 PM MDT
Nautical Twilight 4:27 AM MDT 10:06 PM MDT
Astronomical Twilight 3:36 AM MDT 10:58 PM MDT
Moon 6:42 AM MDT (5/29) 9:40 PM MDT (5/29)
Length of Visible Light 16h 11m
Length of Day
15h 03m
New Moon, 1% of the Moon is Illuminated
May 29
New Moon
Jun 5
First Quarter
Jun 12
Full
Jun 19
Last Quarter
Jun 27
New

Hourly Weather History & Observations

Time (MDT) Temp. Windchill Dew Point Humidity Pressure Visibility Wind Dir Wind Speed Gust Speed Precip Events Conditions
12:15 AM 50.0 °F - 37.4 °F 62% 30.07 in 10.0 mi SSE 4.6 mph - N/A   Clear
12:35 AM 46.4 °F - 37.4 °F 71% 30.07 in 10.0 mi Calm Calm - N/A   Scattered Clouds
12:55 AM 44.6 °F - 37.4 °F 76% 30.06 in 10.0 mi Calm Calm - N/A   Scattered Clouds
1:15 AM 42.8 °F - 37.4 °F 81% 30.06 in 10.0 mi Calm Calm - N/A   Clear
1:35 AM 44.6 °F - 39.2 °F 81% 30.06 in 10.0 mi Calm Calm - N/A   Scattered Clouds
1:55 AM 42.8 °F - 41.0 °F 93% 30.06 in 10.0 mi Calm Calm - N/A   Overcast
2:15 AM 42.8 °F - 41.0 °F 93% 30.06 in 10.0 mi Calm Calm - N/A   Mostly Cloudy
2:35 AM 44.6 °F - 41.0 °F 87% 30.06 in 10.0 mi Calm Calm - N/A   Scattered Clouds
3:15 AM 44.6 °F 43.1 °F 41.0 °F 87% 30.08 in 10.0 mi West 3.5 mph - N/A   Overcast
3:35 AM 44.6 °F 40.2 °F 42.8 °F 93% 30.07 in 10.0 mi ESE 8.1 mph - N/A   Mostly Cloudy
3:55 AM 50.0 °F - 37.4 °F 62% 30.09 in 10.0 mi Calm Calm - N/A   Overcast
4:15 AM 50.0 °F - 41.0 °F 71% 30.08 in 10.0 mi ENE 5.8 mph - N/A   Overcast
4:35 AM 48.2 °F - 41.0 °F 76% 30.08 in 10.0 mi Calm Calm - N/A   Overcast
4:55 AM 46.4 °F 43.5 °F 41.0 °F 81% 30.08 in 10.0 mi West 5.8 mph - N/A   Mostly Cloudy
5:15 AM 46.4 °F 45.2 °F 41.0 °F 81% 30.07 in 10.0 mi East 3.5 mph - N/A   Scattered Clouds
5:35 AM 46.4 °F - 39.2 °F 76% 30.08 in 10.0 mi Calm Calm - N/A   Clear
5:55 AM 46.4 °F - 39.2 °F 76% 30.07 in 10.0 mi Calm Calm - N/A   Clear
6:15 AM 46.4 °F 44.3 °F 39.2 °F 76% 30.07 in 10.0 mi SSE 4.6 mph - N/A   Clear
6:55 AM 46.4 °F - 41.0 °F 81% 30.09 in 10.0 mi Calm Calm - N/A   Mostly Cloudy
7:15 AM 48.2 °F - 41.0 °F 76% 30.10 in 10.0 mi NNW 5.8 mph - N/A   Mostly Cloudy
7:35 AM 50.0 °F - 42.8 °F 76% 30.11 in 10.0 mi Calm Calm - N/A   Mostly Cloudy
7:55 AM 50.0 °F - 42.8 °F 76% 30.11 in 10.0 mi West 5.8 mph - N/A   Overcast
8:15 AM 50.0 °F - 42.8 °F 76% 30.10 in 10.0 mi East 8.1 mph - N/A   Overcast
8:35 AM 50.0 °F - 42.8 °F 76% 30.13 in 10.0 mi Calm Calm - N/A   Overcast
8:55 AM 51.8 °F - 42.8 °F 71% 30.13 in 10.0 mi Calm Calm - N/A   Overcast
9:15 AM 53.6 °F - 41.0 °F 62% 30.13 in 10.0 mi WNW 5.8 mph - N/A   Overcast
9:35 AM 55.4 °F - 41.0 °F 58% 30.13 in 10.0 mi WNW 5.8 mph - N/A   Overcast
9:55 AM 55.4 °F - 41.0 °F 58% 30.13 in 10.0 mi East 3.5 mph - N/A   Mostly Cloudy
10:15 AM 59.0 °F - 41.0 °F 51% 30.12 in 10.0 mi ESE 6.9 mph - N/A   Mostly Cloudy
10:35 AM 62.6 °F - 37.4 °F 39% 30.13 in 10.0 mi ESE 5.8 mph - N/A   Overcast
10:55 AM 64.4 °F - 35.6 °F 34% 30.11 in 10.0 mi SSW 5.8 mph - N/A   Overcast
11:15 AM 66.2 °F - 32.0 °F 28% 30.11 in 10.0 mi South 9.2 mph - N/A   Overcast
11:35 AM 68.0 °F - 32.0 °F 26% 30.12 in 10.0 mi South 15.0 mph 18.4 mph N/A   Scattered Clouds
11:55 AM 66.2 °F - 32.0 °F 28% 30.13 in 10.0 mi SSW 17.3 mph 21.9 mph N/A   Scattered Clouds
12:15 PM 66.2 °F - 33.8 °F 30% 30.14 in 10.0 mi SSW 10.4 mph 16.1 mph N/A   Mostly Cloudy
12:35 PM 68.0 °F - 32.0 °F 26% 30.14 in 10.0 mi SSW 11.5 mph 20.7 mph N/A   Scattered Clouds
12:55 PM 69.8 °F - 33.8 °F 27% 30.14 in 7.0 mi SSW 12.7 mph 20.7 mph N/A   Clear
1:15 PM 68.0 °F - 33.8 °F 28% 30.13 in 10.0 mi SW 11.5 mph - N/A   Clear
1:35 PM 69.8 °F - 35.6 °F 28% 30.13 in 10.0 mi SW 9.2 mph - N/A   Clear
1:55 PM 69.8 °F - 33.8 °F 27% 30.13 in 10.0 mi SSW 12.7 mph 19.6 mph N/A   Scattered Clouds
2:15 PM 71.6 °F - 30.2 °F 22% 30.13 in 10.0 mi SSW 9.2 mph 16.1 mph N/A   Mostly Cloudy
2:35 PM 71.6 °F - 32.0 °F 23% 30.12 in 10.0 mi WSW 13.8 mph 19.6 mph N/A   Scattered Clouds
2:55 PM 71.6 °F - 28.4 °F 20% 30.13 in 10.0 mi WSW 12.7 mph 24.2 mph N/A   Scattered Clouds
3:15 PM 71.6 °F - 26.6 °F 19% 30.13 in 10.0 mi WSW 12.7 mph 18.4 mph N/A   Clear
3:35 PM 71.6 °F - 24.8 °F 17% 30.13 in 10.0 mi SW 10.4 mph 19.6 mph N/A   Clear
3:55 PM 71.6 °F - 24.8 °F 17% 30.13 in 10.0 mi West 16.1 mph 27.6 mph N/A   Scattered Clouds
4:10 PM 71.6 °F - 24.8 °F 17% 30.13 in 10.0 mi WSW 15.0 mph 24.2 mph N/A   Scattered Clouds
4:35 PM 71.6 °F - 23.0 °F 16% 30.13 in 10.0 mi West 15.0 mph 24.2 mph N/A   Clear
4:55 PM 71.6 °F - 23.0 °F 16% 30.13 in 10.0 mi SW 9.2 mph 21.9 mph N/A   Clear
5:15 PM 71.6 °F - 21.2 °F 15% 30.13 in 10.0 mi WSW 13.8 mph 21.9 mph N/A   Clear
5:35 PM 71.6 °F - 26.6 °F 19% 30.13 in 10.0 mi WSW 13.8 mph 17.3 mph N/A   Clear
5:55 PM 69.8 °F - 24.8 °F 18% 30.13 in 10.0 mi SW 11.5 mph 18.4 mph N/A   Clear
6:15 PM 69.8 °F - 23.0 °F 17% 30.13 in 10.0 mi West 17.3 mph 21.9 mph N/A   Clear
6:35 PM 68.0 °F - 21.2 °F 17% 30.14 in 10.0 mi WSW 9.2 mph 18.4 mph N/A   Clear
6:55 PM 68.0 °F - 24.8 °F 20% 30.14 in 10.0 mi WSW 13.8 mph - N/A   Clear
7:15 PM 66.2 °F - 23.0 °F 19% 30.15 in 10.0 mi WSW 11.5 mph - N/A   Clear
7:55 PM 64.4 °F - 26.6 °F 24% 30.16 in 10.0 mi WSW 8.1 mph - N/A   Clear
8:15 PM 64.4 °F - 28.4 °F 26% 30.16 in 10.0 mi WSW 5.8 mph - N/A   Clear
8:35 PM 60.8 °F - 30.2 °F 31% 30.16 in 10.0 mi West 8.1 mph - N/A   Clear
8:55 PM 59.0 °F - 30.2 °F 34% 30.17 in 10.0 mi WSW 6.9 mph - N/A   Clear
9:15 PM 55.4 °F - 28.4 °F 36% 30.17 in 10.0 mi WSW 8.1 mph - N/A   Scattered Clouds
9:35 PM 57.2 °F - 26.6 °F 31% 30.18 in 10.0 mi WSW 5.8 mph - N/A   Clear
9:55 PM 53.6 °F - 30.2 °F 41% 30.19 in 10.0 mi NNW 10.4 mph - N/A   Clear
10:15 PM 53.6 °F - 30.2 °F 41% 30.19 in 10.0 mi WNW 5.8 mph - N/A   Clear
10:35 PM 48.2 °F - 32.0 °F 54% 30.20 in 10.0 mi West 5.8 mph - N/A   Clear
10:55 PM 48.2 °F - 32.0 °F 54% 30.20 in 10.0 mi NW 3.5 mph - N/A   Clear
11:15 PM 46.4 °F 45.2 °F 32.0 °F 57% 30.21 in 10.0 mi WNW 3.5 mph - N/A   Clear
11:35 PM 42.8 °F - 32.0 °F 66% 30.20 in 10.0 mi Calm Calm - N/A   Clear
11:55 PM 42.8 °F - 32.0 °F 66% 30.20 in 10.0 mi Calm Calm - N/A   Clear